Weather History for KLNL - January, 2013

Change the Weather History Date:

Sunday, January 20, 2013

  Actual Average (KEGV) Record (KEGV)
Temperature  
Mean Temperature -2 °F -  
Max Temperature 6 °F 20 °F 38 °F (1991)
Min Temperature -11 °F -4 °F -24 °F (1971)
Degree Days  
Heating Degree Days 68    
Moisture  
Dew Point -5 °F    
Average Humidity 74    
Maximum Humidity 85    
Minimum Humidity 61    
Precipitation  
Precipitation 0.00 in - - ()
Sea Level Pressure  
Sea Level Pressure 30.03 in    
Wind  
Wind Speed 10 mph (WNW)    
Max Wind Speed 18 mph    
Max Gust Speed 26 mph    
Visibility 8 miles    
Events Snow    
Averages and records for this station are not official NWS values.
T = Trace of Precipitation, MM = Missing Value Source: NWS Daily Summary

Daily Weather History Graph

Daily Weather History Graph

Search for Another Location

Airport or City:

Trip Planner

Search our weather history database for the weather conditions in past years. The results will help you decide how hot, cold, wet, or windy it might be!

Date:

Astronomy

Jan. 20, 2013 Rise Set
Actual Time 7:31 AM CST 4:44 PM CST
Civil Twilight 6:58 AM CST 5:18 PM CST
Nautical Twilight 6:21 AM CST 5:54 PM CST
Astronomical Twilight 5:46 AM CST 6:30 PM CST
Moon 11:47 AM CST (1/20) 2:01 AM CST (1/20)
Length of Visible Light 10h 19m
Length of Day
9h 13m
Waxing Gibbous, 66% of the Moon is Illuminated
Jan 20
Waxing Gibbous
Jan 26
Full
Feb 3
Last Quarter
Feb 10
New
Feb 17
First Quarter

Hourly Weather History & Observations

Time (CST) Temp. Windchill Dew Point Humidity Pressure Visibility Wind Dir Wind Speed Gust Speed Precip Events Conditions
12:15 AM 5.0 °F -14.2 °F -0.4 °F 78% 29.80 in 5.0 mi NNW 17.3 mph 25.3 mph N/A Snow Light Snow
12:35 AM 5.0 °F -12.3 °F -0.4 °F 78% 29.82 in 4.0 mi NW 13.8 mph 18.4 mph N/A Snow Light Snow
12:55 AM 5.0 °F -10.8 °F 1.4 °F 85% 29.83 in 4.0 mi WNW 11.5 mph 21.9 mph N/A Snow Light Snow
1:15 AM 6.8 °F -10.7 °F 1.4 °F 79% 29.84 in 3.0 mi NW 15.0 mph 20.7 mph N/A Snow Light Snow
1:35 AM 6.8 °F -12.4 °F 1.4 °F 79% 29.86 in 4.0 mi NNW 18.4 mph 26.5 mph N/A Snow Light Snow
2:15 AM 6.8 °F -9.3 °F 1.4 °F 79% 29.89 in 4.0 mi NW 12.7 mph 17.3 mph N/A Snow Light Snow
2:35 AM 5.0 °F -9.1 °F 1.4 °F 85% 29.91 in 2.5 mi NW 9.2 mph 19.6 mph N/A Snow Light Snow
2:55 AM 5.0 °F -13.0 °F 1.4 °F 85% 29.93 in 2.0 mi NNW 15.0 mph 20.7 mph N/A Snow Light Snow
3:15 AM 5.0 °F -10.8 °F -0.4 °F 78% 29.93 in 3.0 mi NW 11.5 mph 21.9 mph N/A Snow Light Snow
3:35 AM 5.0 °F -10.8 °F -0.4 °F 78% 29.94 in 5.0 mi NW 11.5 mph 21.9 mph N/A Snow Light Snow
3:55 AM 5.0 °F -10.8 °F -0.4 °F 78% 29.95 in 7.0 mi NW 11.5 mph 23.0 mph N/A   Overcast
4:15 AM 5.0 °F -10.0 °F -0.4 °F 78% 29.96 in 7.0 mi NW 10.4 mph 16.1 mph N/A Snow Light Snow
4:35 AM 5.0 °F -9.1 °F -0.4 °F 78% 29.96 in 5.0 mi NW 9.2 mph - N/A Snow Light Snow
4:55 AM 3.2 °F -9.1 °F -0.4 °F 85% 29.97 in 10.0 mi NW 6.9 mph - N/A   Mostly Cloudy
5:15 AM 3.2 °F -10.3 °F -2.2 °F 78% 29.98 in 7.0 mi WNW 8.1 mph - N/A   Scattered Clouds
5:35 AM 3.2 °F -9.1 °F -2.2 °F 78% 29.99 in 10.0 mi NW 6.9 mph - N/A   Mostly Cloudy
6:15 AM 3.2 °F -10.3 °F -2.2 °F 78% 30.01 in 3.0 mi WNW 8.1 mph - N/A Snow Light Snow
6:35 AM 3.2 °F -13.1 °F -2.2 °F 78% 30.02 in 5.0 mi NW 11.5 mph 16.1 mph N/A Snow Light Snow
6:55 AM 1.4 °F -8.3 °F -4.0 °F 78% 30.03 in 7.0 mi WNW 4.6 mph - N/A Snow Light Snow
7:15 AM 1.4 °F -8.3 °F -4.0 °F 78% 30.04 in 10.0 mi WNW 4.6 mph - N/A Snow Light Snow
7:35 AM 1.4 °F -12.5 °F -4.0 °F 78% 30.06 in 3.0 mi WNW 8.1 mph - N/A Snow Light Snow
7:55 AM -0.4 °F -15.7 °F -5.8 °F 78% 30.07 in 4.0 mi West 9.2 mph 17.3 mph N/A Snow Light Snow
8:15 AM -0.4 °F -13.4 °F -5.8 °F 78% 30.08 in 4.0 mi West 6.9 mph - N/A Snow Light Snow
8:35 AM -0.4 °F -14.7 °F -5.8 °F 78% 30.08 in 5.0 mi West 8.1 mph - N/A Snow Light Snow
8:55 AM -0.4 °F -13.4 °F -5.8 °F 78% 30.09 in 7.0 mi West 6.9 mph 10.4 mph N/A   Scattered Clouds
9:15 AM -0.4 °F -14.7 °F -5.8 °F 78% 30.09 in 7.0 mi West 8.1 mph - N/A   Scattered Clouds
9:35 AM 1.4 °F -13.5 °F -5.8 °F 72% 30.09 in 10.0 mi West 9.2 mph - N/A   Clear
9:55 AM 1.4 °F -12.5 °F -5.8 °F 72% 30.09 in 10.0 mi WNW 8.1 mph - N/A   Clear
10:15 AM 3.2 °F -11.3 °F -5.8 °F 66% 30.10 in 10.0 mi West 9.2 mph - N/A   Clear
10:35 AM 5.0 °F -8.1 °F -4.0 °F 66% 30.09 in 10.0 mi NW 8.1 mph - N/A   Clear
10:55 AM 5.0 °F -8.1 °F -4.0 °F 66% 30.10 in 10.0 mi West 8.1 mph - N/A   Scattered Clouds
11:15 AM 5.0 °F -10.0 °F -4.0 °F 66% 30.10 in 10.0 mi NW 10.4 mph - N/A   Scattered Clouds
11:35 AM 5.0 °F -8.1 °F -4.0 °F 66% 30.10 in 10.0 mi NW 8.1 mph - N/A   Mostly Cloudy
11:55 AM 6.8 °F -5.9 °F -2.2 °F 67% 30.10 in 10.0 mi West 8.1 mph - N/A   Overcast
12:15 PM 5.0 °F -10.8 °F -4.0 °F 66% 30.10 in 5.0 mi West 11.5 mph 17.3 mph N/A   Haze
12:35 PM 5.0 °F -9.1 °F -4.0 °F 66% 30.09 in 7.0 mi WNW 9.2 mph 16.1 mph N/A   Overcast
12:55 PM 6.8 °F -5.9 °F -4.0 °F 61% 30.09 in 10.0 mi WNW 8.1 mph - N/A   Overcast
1:15 PM 6.8 °F -10.0 °F -4.0 °F 61% 30.09 in 10.0 mi WNW 13.8 mph 17.3 mph N/A   Overcast
1:35 PM 6.8 °F -6.9 °F -4.0 °F 61% 30.09 in 10.0 mi WNW 9.2 mph - N/A   Overcast
2:15 PM 6.8 °F -6.9 °F -2.2 °F 67% 30.08 in 5.0 mi WNW 9.2 mph - N/A   Haze
2:35 PM 6.8 °F -3.5 °F -4.0 °F 61% 30.08 in 7.0 mi WNW 5.8 mph - N/A   Overcast
2:55 PM 5.0 °F -8.1 °F -4.0 °F 66% 30.08 in 10.0 mi WNW 8.1 mph - N/A   Overcast
3:15 PM 5.0 °F -6.9 °F -5.8 °F 61% 30.08 in 10.0 mi WNW 6.9 mph - N/A   Overcast
3:35 PM 5.0 °F -8.1 °F -4.0 °F 66% 30.08 in 10.0 mi WNW 8.1 mph - N/A   Overcast
3:55 PM 5.0 °F -8.1 °F -5.8 °F 61% 30.08 in 10.0 mi West 8.1 mph - N/A   Overcast
4:15 PM 5.0 °F -5.6 °F -5.8 °F 61% 30.08 in 10.0 mi WNW 5.8 mph - N/A   Overcast
4:35 PM 3.2 °F -9.1 °F -4.0 °F 72% 30.08 in 3.0 mi West 6.9 mph - N/A Snow Light Snow
4:55 PM 3.2 °F -6.2 °F -5.8 °F 66% 30.08 in 10.0 mi WNW 4.6 mph - N/A   Scattered Clouds
5:15 PM 1.4 °F -6.2 °F -5.8 °F 72% 30.07 in 10.0 mi West 3.5 mph - N/A   Clear
5:35 PM -0.4 °F -8.3 °F -5.8 °F 78% 30.07 in 10.0 mi West 3.5 mph - N/A   Clear
5:55 PM -0.4 °F -8.3 °F -7.6 °F 72% 30.08 in 10.0 mi West 3.5 mph - N/A   Clear
6:15 PM -2.2 °F -10.4 °F -7.6 °F 78% 30.08 in 10.0 mi West 3.5 mph - N/A   Clear
6:35 PM -2.2 °F -12.5 °F -7.6 °F 78% 30.07 in 10.0 mi WNW 4.6 mph - N/A   Clear
7:15 PM -2.2 °F -10.4 °F -7.6 °F 78% 30.07 in 10.0 mi NW 3.5 mph - N/A   Scattered Clouds
7:35 PM -4.0 °F - -7.6 °F 85% 30.07 in 10.0 mi Calm Calm - N/A   Clear
7:55 PM -7.6 °F - -13.0 °F 77% 30.07 in 10.0 mi Calm Calm - N/A   Clear
8:15 PM -11.2 °F - -16.6 °F 77% 30.07 in 10.0 mi Calm Calm - N/A   Clear
8:35 PM -11.2 °F - -16.6 °F 77% 30.07 in 10.0 mi Calm Calm - N/A   Scattered Clouds
8:55 PM -11.2 °F -20.6 °F -14.8 °F 84% 30.06 in 10.0 mi West 3.5 mph - N/A   Mostly Cloudy
9:15 PM -7.6 °F -18.8 °F -13.0 °F 77% 30.05 in 10.0 mi West 4.6 mph - N/A   Overcast
9:35 PM -5.8 °F -14.5 °F -9.4 °F 84% 30.04 in 10.0 mi West 3.5 mph - N/A   Overcast
9:55 PM -5.8 °F -14.5 °F -9.4 °F 84% 30.03 in 10.0 mi West 3.5 mph - N/A   Overcast
10:35 PM -4.0 °F -16.3 °F -7.6 °F 85% 30.03 in 10.0 mi West 5.8 mph - N/A   Overcast
11:15 PM -4.0 °F -14.6 °F -9.4 °F 78% 30.01 in 10.0 mi West 4.6 mph - N/A   Overcast
11:35 PM -4.0 °F -16.3 °F -9.4 °F 78% 30.01 in 10.0 mi West 5.8 mph - N/A   Overcast
11:55 PM -4.0 °F -14.6 °F -9.4 °F 78% 30.01 in 10.0 mi West 4.6 mph - N/A   Overcast